Weather History for Portland Troutdale, OR

Change the Weather History Date:

Wednesday, January 23, 2013

  Actual Average Record
Temperature  
Mean Temperature 33 °F 41 °F  
Max Temperature 34 °F 47 °F 64 °F (1970)
Min Temperature 32 °F 35 °F 17 °F (1962)
Degree Days  
Heating Degree Days 32 24  
Month to date heating degree days 661 590  
Cooling Degree Days 0 0  
Month to date cooling degree days 0 0  
Moisture  
Dew Point 26 °F    
Average Humidity 75    
Maximum Humidity 89    
Minimum Humidity 61    
Precipitation  
Precipitation 0.12 in 0.18 in 1.70 in (1970)
Month to date precipitation 0.97 4.79  
Year to date precipitation 0.97 4.79  
Snow  
Snow 0.00 in - - ()
Month to date snowfall 0.0  
Snow Depth 0.00 in    
Sea Level Pressure  
Sea Level Pressure 30.02 in    
Wind  
Wind Speed 17 mph (East)    
Max Wind Speed 31 mph    
Max Gust Speed 40 mph    
Visibility 7 miles    
Events Rain    
T = Trace of Precipitation, MM = Missing Value Source: NWS Daily Summary

Daily Weather History Graph

Daily Weather History Graph

Search for Another Location

Airport:

Trip Planner

Search our weather history database for the weather conditions in past years. The results will help you decide how hot, cold, wet, or windy it might be!

Date:

Astronomy

Jan. 23, 2013 Rise Set
Actual Time 7:39 AM PST 5:03 PM PST
Civil Twilight 7:07 AM PST 5:36 PM PST
Nautical Twilight 6:31 AM PST 6:12 PM PST
Astronomical Twilight 5:56 AM PST 6:47 PM PST
Moon 2:16 PM PST 4:58 AM PST
Length of Visible Light 10h 28m
Length of Day
9h 23m
Waxing Gibbous, 90% of the Moon is Illuminated
Jan 23
Waxing Gibbous
Jan 26
Full
Feb 3
Last Quarter
Feb 9
New
Feb 17
First Quarter

Hourly Weather History & Observations

Time (PST) Temp. Windchill Dew Point Humidity Pressure Visibility Wind Dir Wind Speed Gust Speed Precip Events Conditions
12:53 AM 33.1 °F 20.3 °F 21.9 °F 64% 29.96 in 10.0 mi East 24.2 mph 35.7 mph N/A   Clear
1:53 AM 32.0 °F 18.4 °F 21.9 °F 66% 29.97 in 10.0 mi East 26.5 mph 38.0 mph N/A   Clear
2:53 AM 33.1 °F 21.2 °F 21.9 °F 64% 29.98 in 10.0 mi East 20.7 mph 29.9 mph N/A   Scattered Clouds
3:53 AM 33.1 °F 20.3 °F 21.9 °F 64% 29.96 in 10.0 mi East 24.2 mph 31.1 mph N/A   Partly Cloudy
4:53 AM 33.1 °F 20.1 °F 21.0 °F 61% 29.91 in 10.0 mi East 25.3 mph 40.3 mph N/A   Overcast
5:53 AM 33.1 °F 19.6 °F 21.0 °F 61% 29.92 in 10.0 mi East 27.6 mph 35.7 mph N/A   Overcast
7:53 AM 33.1 °F 20.3 °F 21.9 °F 64% 29.92 in 10.0 mi East 24.2 mph 33.4 mph N/A   Overcast
8:27 AM 33.8 °F 21.0 °F 21.2 °F 60% 29.91 in 10.0 mi East 25.3 mph 34.5 mph N/A   Overcast
8:53 AM 33.1 °F 21.2 °F 21.9 °F 64% 29.93 in 9.0 mi East 20.7 mph 34.5 mph N/A   Overcast
9:53 AM 34.0 °F 21.8 °F 21.9 °F 61% 29.92 in 10.0 mi ENE 23.0 mph 29.9 mph N/A   Overcast
10:53 AM 34.0 °F 21.8 °F 21.9 °F 61% 29.96 in 10.0 mi East 23.0 mph 29.9 mph N/A   Overcast
11:53 AM 34.0 °F 21.5 °F 23.0 °F 64% 29.95 in 10.0 mi East 24.2 mph 28.8 mph N/A   Overcast
12:53 PM 33.1 °F 19.8 °F 25.0 °F 72% 29.94 in 8.0 mi East 26.5 mph 32.2 mph 0.00 in Rain Light Rain
1:40 PM 33.8 °F 23.2 °F 26.6 °F 75% 29.95 in 5.0 mi East 17.3 mph 27.6 mph 0.00 in Rain Light Freezing Rain
1:53 PM 33.1 °F 22.6 °F 26.1 °F 75% 29.96 in 5.0 mi East 16.1 mph 25.3 mph 0.01 in Rain Light Freezing Rain
2:53 PM 33.1 °F 21.5 °F 27.0 °F 78% 29.97 in 4.0 mi East 19.6 mph 28.8 mph 0.02 in Rain Light Freezing Rain
3:09 PM 33.8 °F 22.5 °F 28.4 °F 81% 29.98 in 3.0 mi East 19.6 mph 29.9 mph 0.01 in Rain Light Freezing Rain
3:33 PM 33.8 °F 22.8 °F 28.4 °F 81% 30.01 in 2.5 mi East 18.4 mph 26.5 mph 0.03 in Rain Light Freezing Rain
3:41 PM 33.8 °F 23.9 °F 28.4 °F 81% 30.01 in 2.5 mi East 15.0 mph 26.5 mph 0.04 in Rain Light Freezing Rain
3:53 PM 33.1 °F 22.6 °F 28.0 °F 82% 30.03 in 2.5 mi ESE 16.1 mph 21.9 mph 0.05 in Rain Light Rain
4:02 PM 33.8 °F 23.5 °F 28.4 °F 81% 30.02 in 2.5 mi East 16.1 mph 20.7 mph 0.01 in Rain Light Freezing Rain
4:21 PM 33.8 °F 24.3 °F 28.4 °F 81% 30.04 in 4.0 mi East 13.8 mph - 0.02 in Rain Light Freezing Rain
4:53 PM 33.1 °F 22.6 °F 28.0 °F 82% 30.04 in 5.0 mi East 16.1 mph 23.0 mph 0.03 in Rain Light Freezing Rain
5:39 PM 33.8 °F 25.8 °F 28.4 °F 81% 30.06 in 8.0 mi East 10.4 mph 19.6 mph 0.01 in   Overcast
5:53 PM 33.1 °F 26.9 °F 28.9 °F 85% 30.07 in 8.0 mi East 6.9 mph - 0.01 in   Overcast
6:53 PM 33.1 °F 27.7 °F 30.0 °F 89% 30.11 in 8.0 mi East 5.8 mph - 0.00 in   Overcast
7:53 PM 33.1 °F 26.9 °F 30.0 °F 89% 30.12 in 7.0 mi East 6.9 mph - N/A   Overcast
8:53 PM 33.1 °F 27.7 °F 28.9 °F 85% 30.17 in 7.0 mi East 5.8 mph - N/A   Overcast
9:53 PM 33.1 °F 30.0 °F 30.0 °F 89% 30.18 in 7.0 mi East 3.5 mph - N/A   Overcast
10:53 PM 33.1 °F - 30.9 °F 92% 30.21 in 5.0 mi Calm Calm - N/A   Overcast
11:53 PM 33.1 °F - 30.9 °F 92% 30.22 in 3.0 mi Calm Calm - N/A   Overcast
11:58 PM 33.8 °F - 30.2 °F 87% 30.22 in 2.5 mi Calm Calm - N/A   Overcast